Regional Weather Roundup
Issued by NWS Goodland, KS

Home | Current Version | Previous Version | Graphics & Text | Print | Product List | Glossary On
Versions: 1 2 3 4 5 6 7 8 9 10 11 12 13 14 15 16 17 18 19 20 21 22 23 24 25 26 27 28 29 30 31 32 33 34 35 36 37 38 39 40 41 42 43 44 45 46 47 48 49 50
000
ASUS43 KGLD 210208
RWRGLD

GOODLAND FORECAST AREA HOURLY WEATHER ROUNDUP
NATIONAL WEATHER SERVICE GOODLAND KS
800 PM MDT WED AUG 20 2014

...OFFICIAL OBSERVATIONS...

CITY           SKY/WX    TMP DP  RH WIND       PRES   REMARKS
GOODLAND KS    MOCLDY    80  62  54 CALM      29.81R
HILL CITY KS   MOCLDY    90  63  40 S10       29.73R
IMPERIAL NEB   TSTM      76  61  59 W13       29.86R
MCCOOK NEB     CLOUDY    84  57  39 SE9G21    29.74F
AKRON CO       MOCLDY    72  56  57 SE6       29.89F
BURLINGTON CO  CLOUDY    78  57  48 N9        29.88R
LIMON CO       PTCLDY    72  51  47 NE5       29.95S
$$

...UNOFFICIAL OBSERVATIONS...

CITY           SKY/WX    TMP DP  RH WIND       PRES   REMARKS
COLBY KS       PTCLDY    79  66  65 NE9       29.79S
LENORA KS        N/A     85  32  15 CALM        N/A
NORTON KS      MOCLDY    88  61  40 S3        29.73R
SHARON SPRINGS   N/A     84  56  38 SE7         N/A
WAKEENEY KS      N/A     89  54  29 MISG        N/A
KIT CARSON CO    N/A     84  54  35 MISG        N/A
YUMA CO          N/A     69  62  80 E5          N/A
$$


USA.gov is the U.S. government's official web portal to all federal, state and local government web resources and services.